CAPE
26 33 0 1 24 22 65 69 120 57 36 51 79 19 98 33 2 2 4 3 1 0 0 1 2 4 4 3 5 4 3 3 1 0 0 1 2 3 4 5 5 3 5 4
8 11 16 7 7 3 3 21 51 60 79 47 50 24 55 126 1 3 5 2 1 0 0 1 2 3 4 3 1 0 0 0 0 1 0 2 3 3 3 4 5 5 6 4
40 29 25 31 0 4 1 0 12 76 35 31 51 47 83 198 9 4 4 3 1 0 1 2 4 4 4 3 0 0 0 0 0 2 2 4 4 5 8 8 9 11 10 8
68 29 41 2 0 0 25 28 25 72 88 82 96 111 110 162 60 0 0 0 1 3 2 4 3 3 4 2 0 0 0 0 0 2 3 5 6 9 13 16 18 16 11 10
38 27 18 12 0 98 152 7 1 52 35 70 83 105 28 70 1 0 0 5 4 5 5 6 9 4 5 1 0 0 0 1 1 3 6 8 7 10 16 16 19 18 17 10
56 41 45 18 0 56 75 46 5 21 27 65 78 176 202 1 0 0 0 11 15 8 10 6 10 3 4 2 2 3 2 1 1 4 5 7 10 11 17 22 18 24 18 17
99 55 23 0 0 57 68 19 5 36 55 56 88 9 0 3 7 4 10 18 6 7 9 7 11 15 13 9 5 3 3 2 2 2 5 9 11 17 17 18 19 15 18 22
88 95 60 1 20 48 150 26 5 21 56 32 1 6 7 6 5 9 11 14 10 10 10 11 9 5 6 8 13 6 5 4 5 4 4 9 13 17 16 18 12 13 14 17
96 107 55 61 66 69 0 3 0 1 0 2 5 7 6 9 10 9 10 8 8 5 4 3 2 0 0 4 6 4 2 3 3 3 3 3 6 8 11 21 12 9 11 14
118 28 111 89 27 0 0 0 0 0 3 1 8 9 10 10 11 13 18 9 4 4 3 2 1 0 0 0 1 0 0 0 0 0 0 0 0 2 2 5 9 9 13 11
138 127 40 4 48 31 0 0 0 0 2 2 5 10 7 8 10 16 18 13 4 3 3 2 0 0 0 0 0 0 0 0 0 0 0 0 0 1 3 3 3 5 10 19
311 122 167 135 71 0 0 0 0 0 2 5 5 6 8 17 9 8 12 10 7 3 3 0 0 0 0 0 0 0 0 0 0 0 0 0 0 1 0 0 0 0 0 4
174 3 0 0 0 0 0 1 1 1 2 5 5 7 6 8 10 7 6 3 9 12 7 8 4 1 0 0 0 0 0 0 0 0 0 0 0 1 6 1 0 0 0 0
0 0 0 0 0 0 0 3 4 3 3 4 4 4 6 6 6 6 5 4 2 0 0 0 0 0 0 0 0 0 0 0 3 6 8 10 11 10 12 12 15 18 1 0
2 0 0 0 0 0 0 2 3 4 4 4 4 5 5 6 6 6 5 3 1 3 4 1 1 2 1 0 0 2 6 9 11 14 10 5 7 7 6 8 11 12 9 1
0 0 0 0 0 0 0 1 3 4 5 4 4 4 4 5 3 2 0 0 0 0 0 0 0 1 0 1 1 3 4 1 2 8 6 5 2 1 2 3 3 5 8 3
1 0 0 0 0 0 1 2 3 4 4 4 4 3 4 2 0 0 2 4 0 3 1 1 0 1 0 0 0 3 4 1 0 1 1 1 1 0 0 0 1 1 4 0
0 0 0 0 0 2 3 3 3 4 3 3 4 1 0 0 6 7 10 6 5 5 3 2 0 0 1 0 0 3 2 1 0 1 0 0 0 0 0 0 0 0 2 1
0 0 1 3 3 4 3 2 7 4 4 0 0 0 0 6 5 6 7 5 5 4 6 1 0 0 0 0 0 0 0 0 0 0 0 0 1 0 0 1 1 3 4 5
0 0 3 2 2 4 4 5 2 4 1 0 0 0 3 2 2 6 4 2 1 0 1 0 0 0 0 0 0 1 2 3 0 1 1 0 3 2 2 0 0 4 8 8
3 3 7 0 2 4 6 4 5 3 3 2 3 4 3 1 3 7 3 1 3 0 1 0 0 0 0 0 0 6 5 5 4 3 2 3 4 2 2 3 4 5 6 7
1 1 1 3 4 8 5 8 6 6 6 5 5 4 2 1 2 0 1 1 4 0 1 1 0 0 0 0 0 5 3 1 3 2 4 3 3 2 3 2 2 4 5 6
2 1 1 1 2 2 2 4 6 5 5 5 3 3 5 0 0 0 0 0 1 2 0 2 0 0 0 4 7 5 3 2 3 2 2 2 2 1 1 1 2 3 4 3
1 1 1 1 7 3 1 3 5 7 8 6 5 4 5 6 3 0 0 0 0 4 6 2 0 0 0 10 8 6 4 5 4 4 2 0 2 0 1 1 0 2 1 0
1 1 1 1 3 4 5 2 2 4 5 6 6 8 7 4 2 3 4 4 1 5 6 0 0 0 7 9 7 5 5 5 6 5 2 2 1 0 1 1 0 1 1 2
5 6 5 4 3 3 3 4 6 7 8 10 11 12 16 8 4 9 5 9 5 3 9 6 2 3 9 7 5 3 4 2 0 0 1 0 0 0 0 0 0 1 1 1
3 0 0 2 2 2 4 5 6 7 10 11 10 14 12 11 22 12 10 16 17 10 7 6 4 6 8 8 5 3 2 3 1 1 1 2 1 2 0 0 0 0 1 1
CIN
-1 0 0 -1 -4 0 0 0 0 0 -1 0 0 -2 -15 0 0 0 0 0 0 0 0 0 0 0 0 0 0 0 0 0 0 0 0 0 0 0 0 0 0 0 0 0
-3 -2 0 -1 0 0 -3 0 0 0 0 0 0 -3 -4 -1 0 0 0 0 0 0 0 0 0 0 0 0 0 0 0 0 0 0 0 0 0 0 0 0 0 0 0 0
0 0 -1 -1 0 0 0 0 -2 0 0 -3 -1 -2 -8 -1 -46 0 0 0 0 0 0 0 0 0 0 0 0 0 0 0 0 0 0 0 0 0 0 0 0 0 0 0
0 0 -1 0 0 -1 -1 -1 0 -1 -1 -1 -1 -1 -7 0 -46 0 0 0 0 0 0 0 0 0 0 0 0 0 0 0 0 0 0 0 0 0 0 0 0 0 0 0
0 0 0 0 0 -13 -2 -8 0 0 -2 -1 -2 -17 -121 -57 -12 0 0 0 -1 0 0 0 0 0 0 0 0 0 0 0 0 0 0 0 0 0 0 0 0 0 0 0
0 0 0 -1 0 -3 -3 0 -1 -10 -10 0 -46 -10 0 0 0 0 0 0 0 -1 0 0 -1 0 0 0 0 0 0 0 0 0 0 0 0 0 0 0 0 0 0 0
0 0 0 0 0 -3 -1 -6 -10 -10 -10 -6 -52 -34 0 0 0 0 0 0 0 0 0 0 0 0 0 0 0 0 0 0 0 0 0 0 0 0 0 0 0 0 0 0
0 0 0 0 -1 -1 -7 -49 -46 -54 -42 -56 0 0 0 0 0 0 0 0 0 0 0 0 0 0 0 0 0 0 0 0 0 0 0 0 0 0 0 0 0 0 0 0
0 -1 -39 -1 -2 -11 -7 -50 -2 -8 0 0 0 0 0 0 0 0 0 0 0 0 0 0 0 0 0 0 0 0 0 0 0 0 0 0 0 0 0 0 0 0 0 0
0 -3 0 -3 -24 0 0 0 0 0 0 -1 0 0 0 0 0 0 0 0 0 0 0 0 0 0 0 0 0 0 0 0 0 0 0 0 0 0 0 0 0 0 0 0
0 0 -4 -15 -23 -38 0 0 0 0 0 0 0 0 0 0 0 0 0 0 0 0 0 0 0 0 0 0 0 0 0 0 0 0 0 0 0 0 0 0 0 0 0 0
0 -2 -1 -1 -13 0 0 0 0 0 0 0 0 0 0 0 0 0 0 0 0 0 0 0 0 0 0 0 0 0 0 0 0 0 0 0 0 0 0 0 0 0 0 0
0 -1 0 0 0 0 0 0 0 0 0 0 0 0 0 0 0 0 0 0 0 0 -3 -1 -9 -12 0 0 0 0 0 0 0 0 0 0 0 0 0 0 0 0 0 0
0 0 0 0 0 0 0 0 0 0 0 0 0 0 0 0 0 0 0 0 0 0 0 0 0 0 0 0 0 0 0 0 0 0 0 0 0 0 0 0 0 0 0 0
0 0 0 0 0 0 0 0 0 0 0 0 0 0 0 0 0 0 0 0 0 0 0 0 0 0 0 0 0 0 0 0 0 0 0 0 0 0 0 0 0 0 0 0
0 0 0 0 0 0 0 0 0 0 0 0 0 0 0 0 0 0 0 0 0 0 0 0 0 0 0 0 0 0 0 0 -1 0 0 0 0 0 0 0 0 0 0 0
0 0 0 0 0 0 0 0 0 0 0 0 0 0 0 0 0 0 0 0 0 0 0 0 0 0 0 0 0 0 0 0 0 0 0 0 0 0 0 0 0 0 0 0
0 0 0 0 0 0 0 0 0 0 0 -1 -2 -3 0 0 0 0 0 0 0 0 0 0 0 0 0 0 0 0 0 0 0 0 0 0 0 0 0 0 0 0 0 0
0 0 0 0 0 0 0 0 0 -1 -2 0 0 0 0 0 0 0 0 0 0 0 0 0 0 0 0 0 0 0 0 0 0 0 0 0 0 0 0 0 0 0 0 0
0 0 0 0 0 -1 0 -4 -1 0 0 0 0 0 0 0 0 0 0 0 0 0 0 0 0 0 0 0 0 0 0 0 0 0 0 0 0 0 0 0 0 0 0 0
0 0 0 0 -1 0 -2 0 0 0 0 0 0 0 0 0 0 0 0 0 0 0 0 0 0 0 0 0 0 0 0 0 0 0 0 0 0 0 0 0 0 0 0 0
-1 0 0 0 0 0 0 0 0 0 0 0 0 0 0 0 0 0 0 0 0 0 0 0 0 0 0 0 0 0 0 0 0 0 0 0 0 0 0 0 0 0 0 0
0 0 0 0 0 0 0 0 0 0 0 0 0 0 0 0 0 0 0 0 0 0 0 0 -1 0 0 0 0 0 0 0 0 0 0 0 0 0 0 0 0 0 0 0
0 0 0 -1 0 0 0 0 0 0 0 0 0 0 0 0 0 0 0 0 0 0 0 0 0 0 0 0 0 0 0 0 0 0 0 0 0 0 0 0 0 0 0 0
0 0 0 0 0 0 0 0 0 0 0 0 0 0 0 0 0 0 0 0 0 0 0 0 0 0 0 0 0 0 0 0 0 0 0 0 0 0 0 0 0 0 0 0
0 0 0 0 0 0 0 0 0 0 0 0 0 0 0 0 0 0 0 0 0 -1 0 0 0 0 0 0 0 0 0 0 0 0 0 0 0 0 0 0 0 0 0 0
0 0 0 0 0 0 0 0 0 0 0 0 0 0 0 0 0 0 0 0 0 0 0 0 0 0 0 0 0 0 0 0 0 0 0 0 0 0 0 0 0 0 0 0
Wind_Speed
21 23 12 11 13 18 18 17 13 17 19 21 17 12 19 13 16 15 17 16 13 11 9 8 6 6 4 3 5 4 6 6 7 8 9 9 10 10 10 11 11 12 12 14
22 23 22 21 22 26 22 24 24 23 25 23 22 20 15 18 16 17 17 16 14 12 11 9 8 7 5 5 6 6 6 7 7 8 9 10 10 9 10 11 12 12 13 13
21 21 20 18 29 22 25 26 24 24 23 24 19 16 13 13 18 17 16 16 15 12 11 10 8 7 6 6 6 7 6 7 8 8 9 9 10 10 11 11 12 12 13 13
6 11 14 12 17 25 22 23 22 24 22 22 18 13 9 9 16 15 15 14 14 12 11 10 9 7 7 7 7 7 8 8 9 8 8 8 9 9 9 8 10 10 11 13
8 13 16 19 15 6 11 17 17 19 19 18 12 3 5 5 13 14 15 14 11 12 12 10 10 7 7 7 7 8 8 9 9 8 8 8 9 9 9 8 9 9 10 12
12 15 18 18 20 13 10 15 15 20 19 16 9 9 7 9 13 16 17 15 13 10 10 9 7 8 9 8 9 8 7 8 8 9 8 8 9 9 8 7 8 7 9 11
15 15 16 24 24 2 11 14 7 7 5 5 10 4 14 15 15 16 16 16 14 13 9 8 7 7 7 9 9 8 8 8 8 8 8 7 8 7 7 7 6 7 8 9
13 18 19 13 2 12 5 1 1 2 1 8 12 14 13 15 16 16 16 16 15 13 12 12 12 12 10 9 7 8 9 8 7 7 6 6 6 6 6 5 7 8 9 9
11 5 6 6 8 7 4 3 2 3 6 15 15 14 15 14 14 14 15 15 14 13 14 13 13 12 12 12 11 10 9 8 7 7 6 6 7 7 6 7 7 8 8 8
8 10 14 9 8 6 6 4 4 7 11 13 14 15 15 13 13 13 12 15 14 14 13 12 11 10 12 12 11 10 9 9 7 7 7 7 6 7 8 8 8 8 8 8
14 16 4 8 13 9 6 4 7 9 13 14 16 16 17 15 14 12 12 12 13 13 12 12 11 11 10 9 9 9 8 7 7 6 7 9 9 8 8 10 11 8 9 8
12 3 10 4 9 11 10 9 10 13 14 14 16 17 17 14 14 14 12 12 11 12 13 12 12 10 9 9 8 8 8 6 4 5 4 4 7 8 11 11 10 11 13 12
6 2 5 3 3 6 9 10 11 12 14 16 16 16 18 16 15 15 13 11 9 10 8 8 9 8 6 7 6 7 8 8 5 4 5 5 4 5 5 6 6 7 9 11
2 5 4 5 4 7 8 9 11 12 13 14 16 16 16 15 16 15 14 13 13 12 11 10 10 8 7 8 10 9 9 8 6 5 5 4 4 4 3 4 4 4 7 8
5 3 3 5 9 9 9 11 13 13 14 14 15 16 16 17 17 16 15 15 14 14 12 11 10 9 8 7 10 10 7 6 5 5 4 3 3 3 3 3 4 4 4 8
5 4 6 8 9 10 10 12 13 13 14 15 15 16 16 16 15 15 15 15 15 13 13 11 11 9 8 8 9 8 7 6 3 4 3 4 3 3 3 4 4 4 5 7
6 6 7 8 9 9 10 10 10 13 13 14 15 15 16 16 15 15 13 11 11 12 12 11 11 8 7 7 7 7 6 5 4 3 4 4 3 4 4 4 4 4 5 6
2 2 4 7 8 9 10 10 11 13 13 14 12 10 12 13 13 13 12 12 12 11 11 11 10 8 7 5 4 5 5 4 4 4 3 4 4 4 4 4 4 4 4 5
3 3 5 8 8 8 9 9 10 10 9 12 12 11 11 10 13 13 13 12 12 13 11 11 13 11 9 6 5 5 5 4 4 4 4 3 3 4 4 3 3 3 4 4
7 6 6 8 7 7 7 8 11 11 11 12 12 12 12 12 12 12 13 12 10 9 13 13 11 10 9 8 2 5 5 4 4 4 3 3 3 3 3 3 3 3 4 4
8 8 8 9 8 9 9 9 11 12 12 13 14 13 13 13 12 12 13 10 11 14 13 13 9 8 7 8 5 5 4 4 4 4 3 3 4 2 2 2 2 3 3 4
7 8 8 8 8 9 8 9 9 11 11 12 11 12 13 13 12 11 8 9 9 15 11 8 7 9 9 8 6 5 5 4 4 4 3 2 2 1 1 1 2 3 3 3
7 8 8 9 8 8 9 8 9 10 11 11 13 14 12 10 10 10 8 12 10 12 9 7 13 12 10 5 5 5 5 4 4 3 3 3 2 1 1 2 2 2 3 4
8 8 8 8 9 8 8 8 8 9 9 10 10 11 12 10 8 7 9 13 15 13 9 11 12 12 8 6 5 5 5 4 4 3 4 1 3 2 1 0 1 2 2 2
8 8 9 9 8 6 9 9 9 9 11 10 11 11 11 8 8 8 9 10 15 11 10 13 13 11 6 6 5 5 4 4 4 4 4 3 2 2 2 1 1 2 2 3
9 7 7 8 5 7 7 8 7 8 9 9 9 9 9 8 8 9 10 12 12 12 10 9 8 7 6 6 6 5 4 5 4 3 3 3 3 3 2 1 1 2 2 3
5 5 6 6 5 6 7 8 7 8 9 9 10 10 10 10 10 10 12 11 10 9 9 9 8 7 6 6 6 5 4 5 4 5 5 4 3 3 2 2 2 2 2 3
Wind_Direction
252 260 174 239 248 259 250 254 243 266 260 264 280 283 208 203 167 189 182 189 190 168 148 149 149 145 137 136 99 81 76 57 51 44 44 39 37 33 35 32 27 24 25 27
268 282 266 265 253 250 260 245 248 254 255 259 262 272 267 175 179 192 191 186 180 163 154 154 157 147 152 123 95 84 65 62 52 49 46 40 38 37 39 35 33 22 26 31
252 243 258 264 255 267 264 261 264 263 265 269 277 281 240 189 180 195 189 186 172 155 158 154 151 153 145 125 113 88 81 72 67 55 51 43 40 41 43 39 37 33 25 23
259 279 257 249 244 248 269 256 260 259 264 272 277 287 306 219 166 171 182 167 158 160 150 152 152 141 147 125 108 100 85 69 58 55 55 52 56 47 47 49 46 40 34 27
246 253 264 268 248 233 254 264 272 283 278 276 287 96 47 139 162 162 145 148 148 157 146 150 146 153 139 123 118 101 85 71 59 63 53 54 54 49 41 45 46 47 38 38
249 252 255 261 265 315 354 261 258 254 260 267 136 202 192 158 127 120 118 129 140 127 131 137 143 151 132 124 99 79 83 93 93 79 66 55 53 52 48 46 44 41 49 39
238 249 259 264 271 201 241 269 344 318 306 234 184 7 106 116 115 115 127 134 139 138 131 126 124 114 117 119 120 127 102 82 66 80 77 65 68 52 52 50 50 45 46 47
230 244 254 247 150 214 298 56 319 4 222 125 109 116 109 118 124 128 133 140 146 143 145 155 150 142 132 124 122 106 106 98 84 81 76 76 64 66 60 44 49 43 40 40
251 280 225 267 222 227 253 277 212 163 144 132 134 132 133 132 133 133 139 147 147 151 155 155 155 155 143 144 141 133 116 110 104 98 81 73 62 45 43 47 39 36 34 31
260 261 235 240 196 211 216 228 174 145 140 141 143 142 135 137 139 143 151 153 159 157 155 151 147 145 143 151 150 140 130 123 109 81 70 51 66 63 42 28 34 29 34 32
252 258 241 247 247 223 196 192 163 144 144 148 148 143 148 148 149 149 156 161 160 158 150 147 149 140 137 143 137 129 125 122 113 111 110 95 63 30 70 52 35 33 17 45
259 311 252 308 218 207 179 189 166 156 142 154 154 152 154 152 152 156 156 162 157 150 149 150 141 141 138 138 141 137 130 115 92 103 87 86 130 110 88 88 78 63 45 32
243 320 87 70 96 159 178 185 171 156 155 153 156 159 154 152 151 153 157 144 132 132 122 120 99 83 106 124 138 127 114 114 115 97 85 77 65 38 105 143 118 83 61 43
192 150 136 162 162 166 163 159 155 148 147 152 158 152 153 152 149 156 151 144 138 132 119 114 110 103 90 88 86 78 82 71 93 93 94 89 74 68 48 17 11 104 82 38
171 239 326 137 139 145 148 153 157 150 153 154 155 153 158 151 161 154 148 146 145 142 136 131 126 117 115 118 117 118 118 109 100 93 76 86 83 67 42 22 14 16 35 27
182 151 141 152 148 150 157 168 163 154 159 157 156 158 157 158 148 143 147 153 152 148 144 132 128 124 128 119 116 109 95 82 90 113 118 80 63 45 36 30 17 18 35 28
148 162 158 154 157 159 168 168 159 158 158 160 159 156 156 146 143 146 146 144 120 128 133 132 129 129 134 148 144 127 121 109 87 105 75 72 63 53 36 28 23 11 42 64
52 93 162 162 165 166 163 158 152 158 163 160 146 141 134 146 146 137 132 125 123 132 132 130 132 134 134 141 130 116 117 118 102 93 89 62 48 55 46 33 27 13 10 69
51 121 148 149 158 159 158 154 148 140 127 123 124 130 134 134 135 137 139 142 144 140 135 139 141 139 137 124 133 120 116 120 121 99 92 121 91 64 48 26 25 19 10 18
87 95 116 129 129 140 133 113 121 122 126 128 126 133 136 138 139 146 149 152 159 134 150 145 153 145 135 135 180 118 128 129 124 106 75 93 93 81 97 103 6 6 15 10
100 102 89 90 85 95 115 128 130 140 146 143 152 149 144 143 151 153 156 147 121 145 145 157 157 143 140 139 159 124 128 127 135 132 136 129 153 104 73 37 22 18 7 358
119 121 124 125 130 124 131 144 148 150 150 150 141 139 140 147 153 165 166 149 149 156 153 160 154 148 128 163 121 130 131 136 136 144 143 142 125 129 92 46 7 4 353 355
125 130 133 136 138 139 145 151 151 155 158 150 149 149 154 152 160 159 156 143 150 162 163 150 119 124 144 135 132 132 136 143 143 128 127 125 128 113 48 37 343 353 348 356
132 136 135 135 124 140 149 148 154 153 147 147 151 155 147 152 167 169 142 150 155 163 139 130 135 144 160 133 142 140 150 143 147 153 109 59 137 162 163 71 302 327 341 314
141 139 143 149 155 162 143 153 146 150 151 148 151 151 154 163 164 152 144 151 158 158 125 136 146 151 147 146 147 152 151 164 162 161 175 157 169 193 218 160 257 346 320 301
160 163 160 172 165 152 158 166 163 160 161 153 157 157 157 162 161 138 151 149 168 142 142 151 157 169 151 149 149 160 166 120 160 178 167 178 176 217 194 216 261 267 297 314
170 147 156 162 170 170 169 178 169 170 173 163 160 164 163 167 155 148 155 159 163 150 151 162 162 168 158 152 158 159 169 168 177 170 196 186 207 199 197 225 256 289 288 281